Regional Weather Roundup
Issued by NWS

Home | Current Version | Previous Version | Graphics & Text | Print | Product List | Glossary On
Versions: 1 2 3 4 5 6 7 8 9 10 11 12 13 14 15 16 17 18 19 20 21 22 23 24 25 26 27 28 29 30 31 32 33 34 35 36 37 38 39 40 41 42 43 44 45 46 47 48 49 50
000
ASUS43 KOAX 272302
RWRNE

WEATHER ROUNDUP FOR NEBRASKA
NATIONAL WEATHER SERVICE OMAHA NE
500 PM CST THU NOV 27 2014

NOTES: SATELLITE DATA IS BEING USED TO AUGMENT CLOUD COVER ABOVE
       12000 FEET.
       "FAIR" INDICATES FEW OR NO CLOUDS BELOW 12,000 FEET WITH NO
       SIGNIFICANT WEATHER AND/OR OBSTRUCTIONS TO VISIBILITY.

  * THESE STATIONS DO NOT REPORT WEATHER SUCH AS RAIN...SNOW OR FOG.

NEZ001>004-019>022-054>056-280000-
NEBRASKA PANHANDLE

CITY           SKY/WX    TMP DP  RH WIND       PRES   REMARKS
SCOTTSBLUFF    CLEAR     55  30  38 W13       29.98F
ALLIANCE       CLEAR     52  28  39 W12       29.96F
CHADRON        PTCLDY   N/A N/A N/A NW7       29.92F
SIDNEY         MOCLDY    44  31  60 W9        30.04S
$$

NEZ057>060-069>072-079>082-280000-
SOUTHWEST NEBRASKA

CITY           SKY/WX    TMP DP  RH WIND       PRES   REMARKS
NORTH PLATTE   CLEAR     42  23  46 SE5       30.02F
IMPERIAL       MOCLDY    54  30  40 SE3       30.03F
MCCOOK         PTCLDY    53  26  35 S14       30.05F
$$

NEZ005>010-023>029-035>040-094-280000-
NORTH CENTRAL NEBRASKA

CITY           SKY/WX    TMP DP  RH WIND       PRES   REMARKS
VALENTINE      PTCLDY    40  24  53 S10       29.96F WCI  33
BROKEN BOW     CLEAR     41  22  46 S8        30.07S
ORD            CLEAR     36  20  52 S10G21    30.10F WCI  28
$$

NEZ041-046>049-061>064-073>077-083>087-280000-
SOUTH CENTRAL NEBRASKA

CITY           SKY/WX    TMP DP  RH WIND       PRES   REMARKS
GRAND ISLAND   CLEAR     35  18  49 S14       30.17F WCI  26
HASTINGS       CLEAR     36  17  46 S12       30.15F WCI  28
KEARNEY *      CLEAR     37  18  44 SE15      30.13F WCI  28
$$

NEZ011>018-030>034-042>045-280000-
NORTHEAST NEBRASKA

CITY           SKY/WX    TMP DP  RH WIND       PRES   REMARKS
NORFOLK        PTCLDY    26  15  63 SE13      30.20F WCI  15
COLUMBUS *     CLEAR     28  12  50 SE9       30.24F WCI  20
TEKAMAH        MOCLDY    21   7  54 SE15      30.32F WCI   8
$$

NEZ050>053-065>068-078-088>093-280000-
SOUTHEAST NEBRASKA

CITY           SKY/WX    TMP DP  RH WIND       PRES   REMARKS
LINCOLN        PTCLDY    31  16  54 SE13      30.28F WCI  21
OMAHA EPPLEY   MOCLDY    23  10  57 SE16      30.33F WCI  10
FALLS CITY     PTCLDY    29  15  56 E12       30.32F WCI  19
$$

NEZ044-045-051>053-067-280000-
OMAHA AREA

CITY           SKY/WX    TMP DP  RH WIND       PRES   REMARKS
OMAHA EPPLEY   MOCLDY    23  10  57 SE16      30.33F WCI  10
OFFUTT AFB     MOCLDY    23  11  59 SE14      30.32F WCI  11
$$



USA.gov is the U.S. government's official web portal to all federal, state and local government web resources and services.